Location: *
(40.9333°N, 4.1667°W)
Time: 15:34:14
(UTC+00:00)

Daily predictions for brighter satellites

Satellite Brightness Start Highest point End
(mag) Time Altitude Azimuth Time Altitude Azimuth Time Altitude Azimuth
Cosmos 371 Rocket 3.7 19:43:27 10° NNW 19:48:15 66° WSW 19:53:01 10° S
Okean 1 Rocket 4.4 19:48:01 10° SE 19:51:16 21° E 19:54:33 10° NE
Cosmos 1980 Rocket 4.2 19:48:44 10° NNE 19:51:51 15° NE 19:54:57 10° E
ARIANE 6 FM1 Upper Stage 2.6 19:49:28 10° NW 19:53:27 90° WSW 19:57:26 10° SE
Cosmos 2084 4.0 19:50:18 10° SW 19:54:23 61° NW 19:58:29 10° NNE
SL-24 R/B 4.1 19:51:49 10° NNE 19:56:19 66° E 20:00:34 10° S
CZ-4 R/B 1.4 19:54:21 10° SSE 19:57:50 47° ENE 20:01:20 10° N
CZ-4B R/B 3.9 19:56:57 10° SSE 20:00:50 62° ENE 20:04:50 10° N
ASTEX 1 3.6 19:59:01 10° SSE 20:03:50 55° E 20:08:40 10° N
SPOT 5 2.7 19:59:45 10° S 20:04:03 81° W 20:08:23 10° NNW
GEOS 3 Rocket 3.9 19:59:52 10° SSE 20:05:07 72° SW 20:10:30 10° NW
Cosmos 1862 3.8 20:01:46 10° NNW 20:05:15 54° W 20:08:42 10° S
CZ-4B DEB 4.4 20:00:04 10° SSE 20:05:26 56° ENE 20:10:50 10° N
Cosmos 2056 Rocket 3.6 20:01:08 10° SSW 20:06:32 89° ESE 20:11:57 10° NNE
Cosmos 1833 Rocket 2.6 20:01:55 10° SSW 20:07:29 75° ESE 20:13:06 10° NNE
CZ-4B R/B 3.8 20:02:33 10° SE 20:07:50 43° ENE 20:13:08 10° N
CSL-04 Rocket 3.8 20:02:53 10° SSE 20:08:25 87° WSW 20:13:55 10° NNW
Cosmos 1624 Rocket 4.0 20:04:21 10° SSW 20:09:31 89° WNW 20:14:43 10° NNE
Terra 2.2 20:07:34 10° SE 20:12:00 44° ENE 20:16:28 10° N
Sich 1 Rocket 4.3 20:10:09 10° SSE 20:13:59 31° E 20:17:51 10° NNE
ATLAS 5 CENTAUR R/B 4.3 20:16:02 10° WNW 20:19:20 18° WSW 20:23:03 10° SSW
Cosmos 2058 3.9 20:16:43 10° NNW 20:20:25 43° W 20:24:05 10° SSW
SJ 16-02 2.6 20:18:08 10° NNW 20:22:05 38° WSW 20:26:00 10° S
Resurs 01 Rocket 4.4 20:19:38 10° SW 20:22:15 15° W 20:24:52 10° NW
MetOp-B 4.3 20:17:18 10° SSE 20:22:33 58° ENE 20:27:48 10° N
PAYLOAD B 4.2 20:18:42 10° SSE 20:24:09 72° ENE 20:29:41 10° N
USA 229 DEB 4.2 20:19:36 10° NNW 20:27:12 66° NE 20:34:05 16° SE
USA 229 4.2 20:19:39 10° NNW 20:27:15 65° NE 20:34:07 16° SE
Cosmos 44 Rocket 3.7 20:23:23 10° S 20:28:06 44° ESE 20:32:59 10° NE
Cosmos 1743 4.3 20:26:58 10° NE 20:28:18 12° ENE 20:28:34 12° ENE
ISS -3.5 20:26:09 10° SSW 20:29:20 43° SE 20:32:31 10° ENE
Cosmos 1459 Rocket 4.1 20:23:36 10° SSE 20:29:41 56° E 20:35:43 10° NNE
SKYMED 3 4.3 20:28:54 10° NNE 20:32:49 65° ESE 20:36:44 10° S
Cosmos 2100 Rocket 4.0 20:27:06 10° S 20:33:13 66° E 20:39:26 10° NNE
ATLAS 2AS CENTAUR R/B 3.8 20:29:55 10° WSW 20:36:38 49° NW 20:43:15 10° NNE
ADEOS 3.6 20:32:34 14° SSE 20:37:05 69° ENE 20:42:15 10° N
Spot 2 Rocket 3.9 20:36:58 19° SE 20:40:14 45° ENE 20:45:01 10° N
Cosmos 2151 Rocket 3.9 20:37:25 10° SSW 20:41:45 68° W 20:46:06 10° N
BREEZE-M DEB (TANK) 3.8 20:38:56 10° NW 20:41:48 48° NNE 20:47:10 15° ESE
SL-4 R/B 2.2 20:38:47 10° NW 20:42:34 55° NNE 20:44:44 23° ESE
Cosmos 2082 Rocket 3.1 20:40:45 18° SSE 20:43:44 28° ESE 20:48:31 10° NE
Okean 2 Rocket 3.1 20:39:39 10° S 20:44:07 88° W 20:48:37 10° N
Cosmos 1536 Rocket 3.8 20:49:52 10° NNW 20:54:12 66° W 20:57:49 14° S
Cosmos 1607 4.2 20:48:42 10° S 20:54:27 45° ESE 21:00:19 10° NE
Cosmos 2233 Rocket 4.5 20:51:19 21° SE 20:54:53 40° E 21:00:35 10° NNE
IRS-1A Rocket 4.3 20:51:01 17° SSE 20:55:31 85° ENE 21:01:25 10° NNW
Cosmos 2228 3.7 20:55:36 29° ESE 20:56:18 31° E 20:59:57 10° NNE
Timation 1 Rocket 4.4 20:51:54 10° SSW 20:57:54 86° WNW 21:03:57 10° NNE
USA 186 1.8 20:58:27 41° ENE 20:58:27 41° ENE 21:00:51 10° N
Cosmos 292 Rocket 3.7 20:54:13 10° NNW 20:59:01 83° ENE 21:01:33 27° SSE
Okean O Rocket 1.6 20:57:28 29° SE 20:59:30 63° ENE 21:03:45 10° N
DELTA 2 R/B (1) 3.9 20:55:18 10° SW 21:00:28 40° SSE 21:03:11 24° ESE
ERS-1 Rocket 3.8 20:59:16 10° S 21:04:04 49° W 21:08:55 10° NNW
CZ-4C R/B 1.7 21:01:31 10° SW 21:05:27 72° NW 21:10:25 10° NNE
Cosmos 1725 Rocket 3.9 21:00:02 12° S 21:05:51 74° E 21:12:05 10° N
Tsikada Rocket 4.5 21:00:27 10° N 21:06:16 42° ENE 21:08:51 28° SE
Cosmos 1452 Rocket 3.4 21:01:07 10° SSW 21:06:20 80° ESE 21:11:34 10° NNE
Cosmos 1697 Rocket 2.8 21:02:54 10° NNW 21:08:31 72° WSW 21:11:51 25° S
Cosmos 1741 Rocket 4.0 21:05:25 10° NNW 21:10:43 67° ENE 21:13:00 34° SE
SL-16 R/B 4.3 21:09:17 10° NNE 21:12:10 14° NE 21:14:57 10° ENE
Okean-O 2.5 21:10:27 33° SSE 21:12:21 85° E 21:16:46 10° NNW
ATLAS 3B R/B 2.9 21:08:59 10° NW 21:16:46 90° SW 21:20:47 30° SSE
CZ-4B R/B 3.9 21:19:07 35° ESE 21:20:16 40° ENE 21:24:43 10° N
Cosmos 968 Rocket 3.9 21:16:04 10° NNW 21:21:12 58° WSW 21:24:03 26° S
USA 245 4.4 21:18:48 34° SE 21:21:18 62° ENE 21:27:07 10° N
Cosmos 1892 Rocket 3.4 21:17:55 10° N 21:22:15 82° E 21:23:28 47° SSE
Cosmos 1455 Rocket 3.1 21:19:52 24° SSW 21:22:31 77° W 21:26:56 10° N
Cosmos 1302 Rocket 3.9 21:21:11 26° S 21:24:02 69° ESE 21:29:11 10° NNE
Cosmos 2016 Rocket 4.0 21:19:35 15° S 21:24:55 87° W 21:31:11 10° N
Cosmos 2333 Rocket 4.2 21:21:50 10° NNE 21:25:10 16° NE 21:27:39 12° ENE
BREEZE-M DEB (TANK) 4.3 21:24:02 10° WNW 21:27:58 42° SSW 21:32:22 26° SSE
CZ-4 R/B 4.3 21:31:52 10° W 21:32:07 10° W 21:32:21 10° W
Cosmos 2061 Rocket 3.9 21:29:50 33° SSE 21:32:43 68° E 21:38:55 10° NNE
CZ-4B R/B 2.8 21:33:11 54° NE 21:33:11 54° NE 21:36:07 10° N
Cosmos 1782 2.6 21:32:58 60° SW 21:33:24 70° W 21:36:55 10° N
Cosmos 1544 Rocket 4.4 21:35:33 34° ENE 21:35:33 34° ENE 21:38:57 10° NNE
Cosmos 724 4.5 21:29:04 10° SW 21:35:07 75° WNW 21:41:06 10° NNE
SPOT 3 Rocket 3.5 21:34:29 47° SE 21:35:58 73° ENE 21:41:06 10° N
NOSS 3-3 (A) 3.5 21:34:26 39° S 21:36:06 60° ESE 21:41:47 10° NE
Cosmos 1980 Rocket 2.1 21:30:59 10° NNW 21:36:43 85° ENE 21:38:33 45° SSE
BREEZE-M DEB (TANK) 3.0 21:31:24 10° SW 21:36:18 53° SSW 21:36:18 53° SSW
Cosmos 1850 Rocket 4.4 21:39:45 10° NNW 21:44:47 56° WSW 21:46:30 38° SSW
Terra 4.1 21:46:28 10° SW 21:49:42 18° W 21:52:58 10° NW
IRS-1C Rocket 4.0 21:51:54 58° SSE 21:52:59 81° ENE 21:58:17 10° NNW
Milstar 3 4.0 21:46:57 10° WSW 21:53:29 33° S 21:54:31 32° S
CZ-2C R/B 4.3 21:55:17 21° N 21:55:17 21° N 21:56:24 10° N
Cosmos 1758 Rocket 4.0 21:49:46 10° N 21:53:42 48° ENE 21:53:42 48° ENE
Gbstr 26 Del rocket 3.1 21:56:06 10° NW 22:00:50 66° NNE 22:00:52 66° NE
Cosmos 1743 4.3 21:58:43 10° NW 22:00:44 22° WNW 22:00:44 22° WNW
Cosmos 2360 Rocket 4.1 21:58:47 10° N 22:02:29 17° NE 22:04:14 15° ENE
NOSS 3-3 (C) 3.4 22:02:52 56° SSW 22:03:59 81° ESE 22:09:55 10° NE
ISS -1.7 22:03:18 10° W 22:06:13 28° NNW 22:08:14 16° NNE
Geosat 3.8 22:06:57 10° NNE 22:11:59 87° ESE 22:12:24 76° SSW
Cosmos 2237 4.1 22:06:47 10° NNW 22:12:34 75° ENE 22:13:13 67° ESE
Ariane Rocket 3.1 22:12:25 60° SW 22:13:01 66° WSW 22:18:03 10° NNW
USA 305 4.2 22:10:15 10° NNW 22:13:09 28° N 22:13:09 28° N
Meteor 2-9 4.5 22:10:42 10° N 22:16:10 80° E 22:16:32 75° SE
Cosmos 1602 Rocket 4.4 22:15:30 10° N 22:18:42 42° NE 22:18:42 42° NE
SL-4 R/B 4.1 22:16:38 10° W 22:18:10 18° W 22:18:10 18° W
Cosmos 2219 Rocket 4.3 22:16:44 10° NNE 22:19:56 15° NE 22:21:48 13° ENE
Cosmos 1437 Rocket 4.4 22:21:47 27° N 22:21:47 27° N 22:23:32 10° N
Cosmos 2082 Rocket 3.3 22:22:24 11° SW 22:27:34 42° WNW 22:32:59 10° N
Cosmos 2369 3.7 22:22:12 10° NNW 22:27:55 72° WSW 22:28:18 69° SW
Cosmos 2151 3.7 22:25:52 10° N 22:28:56 49° NNW 22:28:56 49° NNW
Cosmos 2322 Rocket 3.4 22:25:29 10° N 22:30:22 29° NE 22:31:03 28° ENE
Okean O Rocket 4.2 22:34:54 10° WSW 22:36:03 11° W 22:37:14 10° WNW
Cosmos 1626 Rocket 4.5 22:33:25 10° NNW 22:37:03 43° WNW 22:37:03 43° WNW
Meteor 1-5 Rocket 4.4 22:34:32 10° N 22:40:03 61° ENE 22:40:03 61° ENE
USA 234 3.1 22:35:43 10° NE 22:42:16 72° SE 22:42:49 68° S
Cosmos 2278 4.0 22:44:06 10° NNW 22:49:38 56° ENE 22:49:38 56° ENE
Helios 1A 4.4 22:46:35 10° N 22:48:44 31° N 22:48:44 31° N
COSMOS 2406 3.7 22:49:27 46° WSW 22:50:45 57° WNW 22:56:25 10° NNE
SL-16 R/B 2.2 22:51:28 10° NNW 22:56:47 76° NNE 22:56:47 76° NNE
Cosmos 1486 Rocket 4.4 22:56:22 10° NNW 23:00:50 56° NNE 23:00:50 56° NNE
Cosmos 2098 Rocket 3.9 23:02:09 55° NW 23:02:09 55° NW 23:06:23 10° N
Nadezhda 4 Rocket 3.8 22:56:45 10° N 23:02:50 87° WNW 23:02:50 87° WNW
Cosmos 2333 Rocket 2.3 23:04:31 10° NNW 23:09:39 73° NNW 23:09:39 73° NNW
BREEZE-M DEB (TANK) 4.5 23:06:29 10° W 23:16:00 51° N 23:20:50 10° ENE
Cosmos 1980 Rocket 4.5 23:17:37 10° WNW 23:19:49 12° W 23:20:18 12° WSW
Cosmos 2195 Rocket 4.4 23:14:45 10° N 23:20:43 82° N 23:20:43 82° N
Cosmos 2026 Rocket 4.0 23:21:09 10° N 23:27:17 80° NE 23:27:17 80° NE
DNEPR-1 R/B 4.5 23:28:14 10° NNW 23:33:34 75° NNE 23:33:34 75° NNE
ALOS 2 4.2 23:43:55 34° N 23:43:55 34° N 23:46:26 10° N
ARIANE 5 R/B 4.1 23:44:33 34° NNW 23:44:33 34° NNW 23:47:06 10° NNW
Cosmos 2360 Rocket 2.7 23:41:27 10° NNW 23:45:58 57° NW 23:45:58 57° NW
